Willimantic, CT

10:18 AM EDT on April 24, 2017 (GMT -0400)
Windham

Weather History for KIJD - November, 2012

Change the Weather History Date:

Thursday, November 8, 2012

  Actual Average Record
Temperature  
Mean Temperature 37 °F -  
Max Temperature 41 °F 53 °F 72 °F (1975)
Min Temperature 33 °F 32 °F 12 °F (1960)
Degree Days  
Heating Degree Days 28    
Moisture  
Dew Point 29 °F    
Average Humidity 71    
Maximum Humidity 81    
Minimum Humidity 62    
Precipitation  
Precipitation 0.06 in - - ()
Sea Level Pressure  
Sea Level Pressure 29.72 in    
Wind  
Wind Speed 15 mph (North)    
Max Wind Speed 20 mph    
Max Gust Speed 33 mph    
Visibility 9 miles    
Events Rain , Snow    
Averages and records for this station are not official NWS values.
T = Trace of Precipitation, MM = Missing Value Source: NWS Daily Summary

Daily Weather History Graph

Daily Weather History Graph

Search for Another Location

Airport or City:

Trip Planner

Search our weather history database for the weather conditions in past years. The results will help you decide how hot, cold, wet, or windy it might be!

Date:

Astronomy

Nov. 08, 2012 Rise Set
Actual Time 6:29 AM EST 4:34 PM EST
Civil Twilight 6:00 AM EST 5:03 PM EST
Nautical Twilight 5:27 AM EST 5:37 PM EST
Astronomical Twilight 4:54 AM EST 6:09 PM EST
Moon 12:17 AM EST (11/8) 1:18 PM EST (11/8)
Length of Visible Light 11h 03m
Length of Day
10h 04m
Waning Crescent, 33% of the Moon is Illuminated
Nov 8
Waning Crescent
Nov 13
New
Nov 20
First Quarter
Nov 28
Full
Dec 6
Last Quarter

Hourly Weather History & Observations

Time (EST) Temp. Windchill Dew Point Humidity Pressure Visibility Wind Dir Wind Speed Gust Speed Precip Events Conditions
12:14 AM 33.8 °F 24.8 °F 26.6 °F 75% 29.71 in 4.0 mi North 12.7 mph 25.3 mph 0.02 in Snow Light Snow
12:52 AM 33.1 °F 22.6 °F 27.0 °F 78% 29.70 in 2.0 mi North 16.1 mph 23.0 mph 0.03 in Snow Light Snow
1:01 AM 33.8 °F 23.9 °F 28.4 °F 81% 29.69 in 1.8 mi North 15.0 mph 23.0 mph 0.00 in Snow Light Snow
1:30 AM 33.8 °F 23.5 °F 28.4 °F 81% 29.69 in 3.0 mi North 16.1 mph 23.0 mph 0.01 in Snow Light Snow
1:52 AM 34.0 °F 24.2 °F 28.0 °F 79% 29.71 in 10.0 mi North 15.0 mph 20.7 mph 0.01 in   Overcast
2:52 AM 34.0 °F 23.0 °F 28.0 °F 79% 29.69 in 8.0 mi North 18.4 mph 24.2 mph 0.01 in Rain Rain
3:52 AM 35.1 °F 26.4 °F 28.0 °F 76% 29.68 in 10.0 mi North 12.7 mph 25.3 mph 0.00 in   Overcast
4:52 AM 36.0 °F 25.3 °F 28.0 °F 73% 29.67 in 10.0 mi North 19.6 mph 31.1 mph 0.00 in Rain Light Rain
5:52 AM 36.0 °F 26.0 °F 28.0 °F 73% 29.66 in 10.0 mi North 17.3 mph 26.5 mph 0.00 in   Overcast
6:52 AM 36.0 °F 26.3 °F 28.9 °F 76% 29.66 in 9.0 mi North 16.1 mph 25.3 mph 0.01 in Rain Light Rain
7:52 AM 37.0 °F 27.7 °F 28.9 °F 73% 29.66 in 10.0 mi North 16.1 mph 27.6 mph 0.00 in   Overcast
8:52 AM 36.0 °F 27.5 °F 28.9 °F 76% 29.67 in 8.0 mi NNW 12.7 mph 20.7 mph 0.00 in Rain Light Rain
9:52 AM 37.0 °F 27.4 °F 30.0 °F 76% 29.67 in 10.0 mi North 17.3 mph 26.5 mph 0.00 in   Overcast
10:52 AM 39.0 °F 29.9 °F 28.9 °F 67% 29.66 in 10.0 mi North 17.3 mph 33.4 mph N/A   Overcast
11:52 AM 39.9 °F 32.5 °F 28.0 °F 63% 29.66 in 10.0 mi North 12.7 mph 25.3 mph N/A   Overcast
12:52 PM 39.9 °F 31.1 °F 28.9 °F 65% 29.65 in 10.0 mi North 17.3 mph 26.5 mph 0.00 in   Overcast
1:52 PM 41.0 °F 34.3 °F 28.9 °F 62% 29.67 in 10.0 mi North 11.5 mph 20.7 mph N/A   Overcast
2:52 PM 39.0 °F 31.4 °F 30.0 °F 70% 29.69 in 10.0 mi North 12.7 mph 21.9 mph N/A   Overcast
3:52 PM 39.0 °F 31.8 °F 30.0 °F 70% 29.71 in 10.0 mi North 11.5 mph 19.6 mph N/A   Overcast
4:52 PM 39.0 °F 29.9 °F 30.0 °F 70% 29.73 in 10.0 mi NNW 17.3 mph 25.3 mph N/A   Overcast
5:24 PM 39.2 °F 31.2 °F 30.2 °F 70% 29.74 in 10.0 mi NNW 13.8 mph 28.8 mph N/A   Overcast
5:52 PM 39.0 °F 31.0 °F 30.0 °F 70% 29.76 in 10.0 mi NNW 13.8 mph 20.7 mph N/A   Overcast
6:52 PM 37.9 °F 28.9 °F 30.0 °F 73% 29.77 in 10.0 mi North 16.1 mph 23.0 mph N/A   Overcast
7:52 PM 39.0 °F 31.0 °F 28.0 °F 65% 29.79 in 10.0 mi NNW 13.8 mph 27.6 mph N/A   Overcast
8:13 PM 39.2 °F 30.8 °F 28.4 °F 65% 29.78 in 10.0 mi North 15.0 mph 24.2 mph N/A   Overcast
8:52 PM 39.0 °F 30.6 °F 28.0 °F 65% 29.80 in 10.0 mi North 15.0 mph 21.9 mph N/A   Overcast
9:16 PM 39.2 °F 32.0 °F 28.4 °F 65% 29.79 in 10.0 mi North 11.5 mph 23.0 mph N/A   Overcast
9:52 PM 39.9 °F 32.1 °F 28.0 °F 63% 29.80 in 10.0 mi NNW 13.8 mph 27.6 mph N/A   Overcast
10:09 PM 39.2 °F 31.6 °F 28.4 °F 65% 29.80 in 10.0 mi NNW 12.7 mph 21.9 mph N/A   Overcast
10:52 PM 39.9 °F 33.4 °F 28.0 °F 63% 29.81 in 10.0 mi North 10.4 mph 21.9 mph N/A   Overcast
11:52 PM 39.9 °F 31.8 °F 28.0 °F 63% 29.82 in 10.0 mi NNW 15.0 mph 26.5 mph N/A   Overcast